| time (UTC) | temp F | wind direction | speed MPH | gust MPH | rain 1hr in | rain 24hr in | rain mn in | humidity % | barometer mb |
| 20260904174509 | 94 | 78 | 0.0 | 5.0 | 0.00 | 0.00 | 0.00 | 58 | 1008.2 |
| 20260904173007 | 92 | 128 | 0.0 | 5.0 | 0.00 | 0.00 | 0.00 | 61 | 1008.3 |
| 20260904171501 | 92 | 128 | 1.0 | 5.0 | 0.00 | 0.00 | 0.00 | 60 | 1008.2 |
| 20260904170100 | 92 | 79 | 0.0 | 7.0 | 0.00 | 0.00 | 0.00 | 60 | 1008.1 |
| 20260904164557 | 90 | 126 | 1.0 | 7.0 | 0.00 | 0.00 | 0.00 | 62 | 1008.2 |
| 20260904163050 | 90 | 99 | 0.0 | 5.0 | 0.00 | 0.00 | 0.00 | 62 | 1008.3 |
| 20260904161541 | 89 | 129 | 0.0 | 7.0 | 0.00 | 0.00 | 0.00 | 63 | 1008.4 |
| 20260904160037 | 89 | 86 | 0.0 | 5.0 | 0.00 | 0.00 | 0.00 | 64 | 1008.4 |
| 20260904154534 | 86 | 274 | 0.0 | 0.0 | 0.00 | 0.00 | 0.00 | 69 | 1008.5 |
| 20260904153036 | 85 | 142 | 0.0 | 2.0 | 0.00 | 0.00 | 0.00 | 67 | 1008.6 |
| 20260904151503 | 84 | 186 | 0.0 | 2.0 | 0.00 | 0.00 | 0.00 | 71 | 1008.6 |
| 20260904150005 | 83 | 174 | 0.0 | 2.0 | 0.00 | 0.00 | 0.00 | 71 | 1008.5 |
| 20260904144559 | 82 | 13 | 0.0 | 1.0 | 0.00 | 0.00 | 0.00 | 72 | 1008.3 |
| 20260904143059 | 81 | 250 | 0.0 | 1.0 | 0.00 | 0.00 | 0.00 | 77 | 1008.5 |
| 20260904141558 | 80 | 109 | 0.0 | 1.0 | 0.00 | 0.00 | 0.00 | 78 | 1008.4 |
| 20260904140057 | 80 | 110 | 0.0 | 4.0 | 0.00 | 0.00 | 0.00 | 78 | 1008.4 |
| 20260904134555 | 79 | 78 | 0.0 | 3.0 | 0.00 | 0.00 | 0.00 | 82 | 1008.6 |
| 20260904133054 | 77 | 117 | 0.0 | 1.0 | 0.00 | 0.00 | 0.00 | 82 | 1008.5 |
| 20260904131614 | 75 | 223 | 0.0 | 1.0 | 0.00 | 0.00 | 0.00 | 86 | 1008.4 |
| 20260904130053 | 73 | 224 | 0.0 | 2.0 | 0.00 | 0.01 | 0.00 | 91 | 1008.1 |
| 20260904124550 | 72 | 179 | 0.0 | 1.0 | 0.00 | 0.01 | 0.00 | 92 | 1007.8 |
| 20260904123050 | 71 | 219 | 0.0 | 0.0 | 0.00 | 0.01 | 0.00 | 93 | 1007.7 |
| 20260904121549 | 71 | 219 | 0.0 | 0.0 | 0.00 | 0.01 | 0.00 | 94 | 1007.6 |
| 20260904120052 | 70 | 219 | 0.0 | 1.0 | 0.00 | 0.02 | 0.00 | 93 | 1007.6 |
| 20260904114552 | 70 | 234 | 0.0 | 2.0 | 0.00 | 0.02 | 0.00 | 93 | 1007.5 |
| 20260904113043 | 70 | 218 | 1.0 | 3.0 | 0.00 | 0.02 | 0.00 | 93 | 1007.4 |
| 20260904111545 | 70 | 346 | 0.0 | 0.0 | 0.00 | 0.02 | 0.00 | 93 | 1007.3 |
| 20260904110042 | 70 | 346 | 0.0 | 0.0 | 0.00 | 0.12 | 0.00 | 93 | 1007.3 |
| 20260904104539 | 71 | 346 | 0.0 | 0.0 | 0.00 | 0.12 | 0.00 | 92 | 1007.1 |
| 20260904103049 | 71 | 218 | 0.0 | 0.0 | 0.00 | 0.12 | 0.00 | 93 | 1007.2 |
| 20260904101538 | 71 | 218 | 0.0 | 2.0 | 0.00 | 0.12 | 0.00 | 93 | 1007.1 |
| 20260904100034 | 71 | 209 | 0.0 | 0.0 | 0.00 | 0.12 | 0.00 | 92 | 1007.1 |
| 20260904094531 | 71 | 209 | 0.0 | 0.0 | 0.00 | 0.12 | 0.00 | 92 | 1007.2 |
| 20260904093030 | 71 | 259 | 0.0 | 0.0 | 0.00 | 0.12 | 0.00 | 92 | 1007.2 |
| 20260904091530 | 72 | 259 | 0.0 | 0.0 | 0.00 | 0.12 | 0.00 | 92 | 1007.1 |
| 20260904090022 | 72 | 261 | 0.0 | 1.0 | 0.00 | 0.12 | 0.00 | 90 | 1007.0 |
| 20260904084520 | 73 | 153 | 0.0 | 0.0 | 0.00 | 0.12 | 0.00 | 89 | 1006.8 |
| 20260904083015 | 74 | 208 | 0.0 | 1.0 | 0.00 | 0.12 | 0.00 | 88 | 1006.6 |
| 20260904081514 | 75 | 237 | 0.0 | 3.0 | 0.00 | 0.12 | 0.00 | 89 | 1006.4 |
| 20260904080012 | 75 | 251 | 0.0 | 4.0 | 0.00 | 0.12 | 0.00 | 90 | 1006.4 |
| 20260904074527 | 75 | 255 | 1.0 | 4.0 | 0.00 | 0.12 | 0.00 | 89 | 1006.5 |
| 20260904073017 | 75 | 242 | 0.0 | 1.0 | 0.00 | 0.12 | 0.00 | 89 | 1006.7 |
| 20260904071508 | 74 | 186 | 0.0 | 0.0 | 0.00 | 0.12 | 0.00 | 89 | 1006.8 |
| 20260904070007 | 74 | 186 | 0.0 | 0.0 | 0.00 | 0.12 | 0.00 | 89 | 1006.9 |
| 20260904064510 | 74 | 186 | 0.0 | 1.0 | 0.00 | 0.12 | 0.00 | 88 | 1007.0 |
| 20260904063106 | 75 | 159 | 0.0 | 0.0 | 0.00 | 0.12 | 0.00 | 88 | 1007.1 |
| 20260904061558 | 75 | 159 | 0.0 | 1.0 | 0.00 | 0.12 | 0.00 | 88 | 1007.1 |
| 20260904060055 | 75 | 196 | 0.0 | 2.0 | 0.00 | 0.12 | 0.00 | 87 | 1007.1 |
| 20260904054553 | 75 | 118 | 0.0 | 5.0 | 0.00 | 0.12 | 0.00 | 86 | 1007.2 |
| 20260904053052 | 76 | 171 | 0.0 | 3.0 | 0.00 | 0.12 | 0.00 | 87 | 1007.2 |
| 20260904051552 | 76 | 215 | 0.0 | 2.0 | 0.00 | 0.12 | 0.00 | 86 | 1007.1 |
| 20260904050023 | 76 | 182 | 0.0 | 0.0 | 0.00 | 0.12 | 0.00 | 86 | 1007.2 |
| 20260904044522 | 76 | 216 | 0.0 | 1.0 | 0.00 | 0.12 | 0.00 | 86 | 1007.2 |
| 20260904043018 | 77 | 166 | 0.0 | 5.0 | 0.00 | 0.12 | 0.00 | 85 | 1007.3 |
| 20260904041526 | 77 | 134 | 1.0 | 4.0 | 0.00 | 0.12 | 0.00 | 86 | 1007.5 |
| 20260904040019 | 77 | 148 | 0.0 | 1.0 | 0.00 | 0.12 | 0.00 | 84 | 1007.5 |
| 20260904034516 | 77 | 134 | 0.0 | 3.0 | 0.00 | 0.12 | 0.00 | 86 | 1007.6 |
| 20260904033014 | 76 | 138 | 0.0 | 2.0 | 0.00 | 0.12 | 0.00 | 86 | 1007.6 |
| 20260904031513 | 76 | 140 | 0.0 | 2.0 | 0.00 | 0.12 | 0.00 | 86 | 1007.6 |
| 20260904030011 | 76 | 173 | 0.0 | 3.0 | 0.00 | 0.12 | 0.00 | 83 | 1007.6 |
| 20260904024511 | 76 | 205 | 0.0 | 1.0 | 0.00 | 0.12 | 0.00 | 83 | 1007.4 |
| 20260904023046 | 76 | 196 | 0.0 | 0.0 | 0.00 | 0.12 | 0.00 | 84 | 1007.3 |
| 20260904021540 | 77 | 182 | 0.0 | 2.0 | 0.00 | 0.12 | 0.00 | 83 | 1007.2 |
| 20260904020034 | 77 | 145 | 0.0 | 3.0 | 0.00 | 0.12 | 0.00 | 80 | 1007.1 |
| 20260904014547 | 77 | 168 | 2.0 | 5.0 | 0.00 | 0.12 | 0.00 | 82 | 1007.0 |
| 20260904013035 | 77 | 212 | 0.0 | 2.0 | 0.00 | 0.12 | 0.00 | 79 | 1007.1 |
| 20260904011530 | 78 | 176 | 0.0 | 2.0 | 0.00 | 0.12 | 0.00 | 79 | 1007.0 |
| 20260904010104 | 78 | 208 | 0.0 | 6.0 | 0.00 | 0.12 | 0.00 | 76 | 1007.0 |
| 20260904004559 | 79 | 171 | 0.0 | 5.0 | 0.00 | 0.12 | 0.00 | 75 | 1006.9 |
| 20260904003102 | 80 | 147 | 2.0 | 5.0 | 0.00 | 0.12 | 0.00 | 73 | 1006.9 |
| 20260904001554 | 81 | 215 | 0.0 | 7.0 | 0.00 | 0.12 | 0.00 | 71 | 1007.1 |
| 20260904000053 | 82 | 146 | 3.0 | 9.0 | 0.00 | 0.12 | 0.00 | 69 | 1006.7 |
| 20260903234554 | 83 | 182 | 4.0 | 10.0 | 0.00 | 0.12 | 0.00 | 68 | 1006.6 |
| 20260903233103 | 84 | 155 | 5.0 | 13.0 | 0.00 | 0.12 | 0.00 | 66 | 1006.5 |
| 20260903231550 | 84 | 196 | 5.0 | 14.0 | 0.00 | 0.12 | 0.00 | 65 | 1006.6 |
| 20260903230053 | 86 | 207 | 5.0 | 13.0 | 0.00 | 0.12 | 0.00 | 63 | 1006.6 |
| 20260903224546 | 86 | 190 | 1.0 | 12.0 | 0.00 | 0.12 | 0.00 | 62 | 1006.5 |
| 20260903223013 | 86 | 173 | 5.0 | 11.0 | 0.00 | 0.12 | 0.00 | 60 | 1006.6 |
| 20260903221519 | 86 | 134 | 4.0 | 11.0 | 0.00 | 0.12 | 0.00 | 60 | 1006.7 |
| 20260903220128 | 86 | 190 | 1.0 | 10.0 | 0.00 | 0.12 | 0.00 | 61 | 1006.9 |
| 20260903214539 | 88 | 180 | 3.0 | 13.0 | 0.00 | 0.12 | 0.00 | 57 | 1006.9 |
| 20260903213038 | 88 | 165 | 6.0 | 13.0 | 0.00 | 0.12 | 0.00 | 57 | 1006.9 |
| 20260903213036 | 88 | 137 | 6.0 | 13.0 | 0.00 | 0.12 | 0.00 | 57 | 1006.9 |
| 20260903211533 | 87 | 94 | 1.0 | 10.0 | 0.00 | 0.12 | 0.00 | 57 | 1007.1 |
| 20260903210032 | 88 | 117 | 4.0 | 12.0 | 0.00 | 0.12 | 0.00 | 56 | 1007.5 |
| 20260903204533 | 87 | 155 | 6.0 | 11.0 | 0.00 | 0.12 | 0.00 | 56 | 1007.4 |
| 20260903203032 | 87 | 223 | 4.0 | 10.0 | 0.00 | 0.12 | 0.00 | 56 | 1007.5 |
| 20260903201530 | 85 | 194 | 4.0 | 9.0 | 0.00 | 0.12 | 0.00 | 57 | 1007.4 |
| 20260903200028 | 85 | 146 | 6.0 | 13.0 | 0.00 | 0.12 | 0.00 | 58 | 1007.2 |
| 20260903194526 | 86 | 203 | 7.0 | 16.0 | 0.00 | 0.12 | 0.00 | 56 | 1007.4 |
| 20260903193021 | 89 | 113 | 7.0 | 14.0 | 0.00 | 0.12 | 0.00 | 56 | 1007.7 |
| 20260903191512 | 86 | 157 | 4.0 | 11.0 | 0.00 | 0.12 | 0.00 | 61 | 1007.9 |
| 20260903190010 | 83 | 132 | 2.0 | 11.0 | 0.00 | 0.12 | 0.00 | 64 | 1007.9 |
| 20260903184506 | 85 | 115 | 2.0 | 9.0 | 0.00 | 0.12 | 0.00 | 62 | 1008.3 |
| 20260903183001 | 82 | 116 | 3.0 | 9.0 | 0.00 | 0.12 | 0.00 | 66 | 1009.0 |
| 20260903181601 | 83 | 136 | 2.0 | 9.0 | 0.00 | 0.12 | 0.00 | 65 | 1009.0 |
| 20260903180058 | 82 | 119 | 4.0 | 9.0 | 0.00 | 0.12 | 0.00 | 68 | 1008.8 |